User: anonymous
Location: Unspecified
(0.0000°N, 0.0000°E)
Time: 09:50:36
(UTC+00:00)
Language:

Tiros 1 - Orbit

View from above orbital plane
View from above orbital plane
View from above satellite
View from above satellite

Ground track
Ground track

The orbit data is extracted from the following two-line orbital elements,

1 00029U 60002B   14233.41435013 -.00000014  00000-0  29310-4 0  3004
2 00029 048.3781 262.6043 0024218 137.6183 222.6604 14.73273509904852
Epoch (UTC): 21 August 2014 09:56:39
Eccentricity: 0.0024218
inclination: 48.3781°
perigee height: 633 km
apogee height: 667 km
right ascension of ascending node: 262.6043°
argument of perigee: 137.6183°
revolutions per day: 14.73273509
mean anomaly at epoch: 222.6604°
orbit number at epoch: 90485

The dashed part of the orbit path shows where the satellite is in the earth's shadow,  

DLR